User: anonymous   Login
Location: Unspecified
(0.0000°N, 0.0000°E)
Time: 03:34:47
(UTC+00:00)
Language:

CBERS 2B - Orbit

View from above orbital plane
View from above orbital plane
View from above satellite
View from above satellite

Ground track
Ground track

The orbit data is extracted from the following two-line orbital elements,

1 32062U 07042A   18022.83927203 +.00000054 +00000-0 +30086-4 0  9993
2 32062 098.1187 051.1686 0030638 235.8641 123.9649 14.39653025543256
Epoch (UTC): 22 January 2018 20:08:33
Eccentricity: 0.0030638
inclination: 98.1187°
perigee height: 738 km
apogee height: 781 km
right ascension of ascending node: 51.1686°
argument of perigee: 235.8641°
revolutions per day: 14.39653025
mean anomaly at epoch: 123.9649°
orbit number at epoch: 54325

The dashed part of the orbit path shows where the satellite is in the earth's shadow,  

DLR